Time,TemperatureF,DewpointF,PressureIn,WindDirection,WindDirectionDegrees,WindSpeedMPH,WindSpeedGustMPH,Humidity,HourlyPrecipIn,Conditions,Clouds,dailyrainin,SoftwareType,DateUTC
2013-06-24 00:04:00,63.1,37.8,30.11,WSW,241,0.0,0.0,39,0.00,,,0.00,WeatherCatV1.12B45,2013-06-24 07:04:00,
2013-06-24 00:09:00,63.1,37.8,30.11,WSW,241,0.0,0.0,39,0.00,,,0.00,WeatherCatV1.12B45,2013-06-24 07:09:00,
2013-06-24 00:14:00,63.1,37.8,30.11,WSW,241,0.0,0.0,39,0.00,,,0.00,WeatherCatV1.12B45,2013-06-24 07:14:00,
2013-06-24 00:19:00,63.1,37.8,30.08,WSW,241,0.0,0.0,39,0.00,,,0.00,WeatherCatV1.12B45,2013-06-24 07:19:00,
2013-06-24 00:24:00,63.1,37.1,30.08,WSW,241,0.0,0.0,38,0.00,,,0.00,WeatherCatV1.12B45,2013-06-24 07:24:00,
2013-06-24 00:29:00,62.6,37.3,30.08,WSW,241,0.0,0.0,39,0.00,,,0.00,WeatherCatV1.12B45,2013-06-24 07:29:00,
2013-06-24 00:34:00,62.2,38.2,30.08,WSW,241,0.0,0.0,41,0.00,,,0.00,WeatherCatV1.12B45,2013-06-24 07:34:00,
2013-06-24 00:39:00,61.3,40.4,30.08,WSW,241,0.0,0.0,46,0.00,,,0.00,WeatherCatV1.12B45,2013-06-24 07:39:00,
2013-06-24 00:44:00,60.8,41.0,30.08,WSW,241,0.0,0.0,48,0.00,,,0.00,WeatherCatV1.12B45,2013-06-24 07:44:00,
2013-06-24 00:49:00,60.6,40.8,30.08,WSW,241,0.0,0.0,48,0.00,,,0.00,WeatherCatV1.12B45,2013-06-24 07:49:00,
2013-06-24 00:54:00,60.8,41.0,30.08,WSW,241,0.0,0.0,48,0.00,,,0.00,WeatherCatV1.12B45,2013-06-24 07:54:00,
2013-06-24 00:59:00,61.0,41.1,30.08,WSW,241,0.0,0.0,48,0.00,,,0.00,WeatherCatV1.12B45,2013-06-24 07:59:00,
2013-06-24 01:04:00,61.2,41.3,30.08,WSW,241,0.0,0.0,48,0.00,,,0.00,WeatherCatV1.12B45,2013-06-24 08:04:00,
2013-06-24 01:09:00,61.3,41.5,30.08,WSW,241,0.0,0.0,48,0.00,,,0.00,WeatherCatV1.12B45,2013-06-24 08:09:00,
2013-06-24 01:14:00,61.3,40.9,30.08,WSW,241,0.0,0.0,47,0.00,,,0.00,WeatherCatV1.12B45,2013-06-24 08:14:00,
2013-06-24 01:19:00,61.3,41.5,30.08,WSW,241,0.0,0.0,48,0.00,,,0.00,WeatherCatV1.12B45,2013-06-24 08:19:00,
2013-06-24 01:24:00,61.2,41.3,30.08,WSW,241,0.0,0.0,48,0.00,,,0.00,WeatherCatV1.12B45,2013-06-24 08:24:00,
2013-06-24 01:29:00,61.0,41.1,30.08,WSW,241,0.0,0.0,48,0.00,,,0.00,WeatherCatV1.12B45,2013-06-24 08:29:00,
2013-06-24 01:34:00,61.0,41.1,30.08,WSW,241,0.0,0.0,48,0.00,,,0.00,WeatherCatV1.12B45,2013-06-24 08:34:00,
2013-06-24 01:39:00,60.4,41.7,30.08,WSW,241,0.0,0.0,50,0.00,,,0.00,WeatherCatV1.12B45,2013-06-24 08:39:00,
2013-06-24 01:44:00,60.1,42.4,30.08,WSW,241,0.0,0.0,52,0.00,,,0.00,WeatherCatV1.12B45,2013-06-24 08:44:00,
2013-06-24 01:49:00,59.7,44.0,30.08,WSW,241,0.0,0.0,56,0.00,,,0.00,WeatherCatV1.12B45,2013-06-24 08:49:00,
2013-06-24 01:54:00,59.4,44.6,30.08,WSW,241,0.0,0.0,58,0.00,,,0.00,WeatherCatV1.12B45,2013-06-24 08:54:00,
2013-06-24 01:59:00,59.0,44.7,30.08,WSW,241,0.0,0.0,59,0.00,,,0.00,WeatherCatV1.12B45,2013-06-24 08:59:00,
2013-06-24 02:04:00,58.6,45.7,30.08,WSW,241,0.0,0.0,62,0.00,,,0.00,WeatherCatV1.12B45,2013-06-24 09:04:00,
2013-06-24 02:09:00,58.3,45.7,30.08,SW,233,0.0,6.3,63,0.00,,,0.00,WeatherCatV1.12B45,2013-06-24 09:09:00,
2013-06-24 02:14:00,58.1,46.0,30.08,SW,230,0.0,3.6,64,0.00,,,0.00,WeatherCatV1.12B45,2013-06-24 09:14:00,
2013-06-24 02:19:00,58.1,46.0,30.08,NNW,336,5.4,5.4,64,0.00,,,0.00,WeatherCatV1.12B45,2013-06-24 09:19:00,
2013-06-24 02:24:00,57.9,46.2,30.08,West,273,0.0,0.0,65,0.00,,,0.00,WeatherCatV1.12B45,2013-06-24 09:24:00,
2013-06-24 02:29:00,58.1,46.4,30.08,NW,312,0.0,4.0,65,0.00,,,0.00,WeatherCatV1.12B45,2013-06-24 09:29:00,
2013-06-24 02:39:00,58.3,46.6,30.08,WNW,291,0.0,3.6,65,0.00,,,0.00,WeatherCatV1.12B45,2013-06-24 09:39:00,
2013-06-24 02:44:00,58.5,46.7,30.08,WNW,291,0.0,0.0,65,0.00,,,0.00,WeatherCatV1.12B45,2013-06-24 09:44:00,
2013-06-24 02:49:00,58.5,46.7,30.08,WNW,291,0.0,0.0,65,0.00,,,0.00,WeatherCatV1.12B45,2013-06-24 09:49:00,
2013-06-24 02:54:00,58.5,46.7,30.08,NNW,340,0.0,2.7,65,0.00,,,0.00,WeatherCatV1.12B45,2013-06-24 09:54:00,
2013-06-24 02:59:00,58.5,46.7,30.08,NW,325,0.0,0.0,65,0.00,,,0.00,WeatherCatV1.12B45,2013-06-24 09:59:00,
2013-06-24 03:00:00,58.5,46.7,30.08,NW,325,0.0,0.0,65,0.00,,,0.00,WeatherCatV1.12B45,2013-06-24 10:00:00,
2013-06-24 03:05:00,58.5,46.7,30.08,NW,317,4.0,4.0,65,0.00,,,0.00,WeatherCatV1.12B45,2013-06-24 10:05:00,
2013-06-24 03:10:00,58.5,47.1,30.08,NNW,334,4.0,4.0,66,0.00,,,0.00,WeatherCatV1.12B45,2013-06-24 10:10:00,
2013-06-24 03:15:00,58.5,47.1,30.08,NNW,331,2.7,4.9,66,0.00,,,0.00,WeatherCatV1.12B45,2013-06-24 10:15:00,
2013-06-24 03:20:00,58.3,47.0,30.08,NW,325,6.3,7.2,66,0.00,,,0.00,WeatherCatV1.12B45,2013-06-24 10:20:00,
2013-06-24 03:25:00,58.1,47.2,30.08,NW,307,4.0,6.3,67,0.00,,,0.00,WeatherCatV1.12B45,2013-06-24 10:25:00,
2013-06-24 03:31:00,58.1,47.6,30.08,West,274,3.6,7.6,68,0.00,,,0.00,WeatherCatV1.12B45,2013-06-24 10:31:00,
2013-06-24 03:36:00,57.9,48.6,30.08,NW,321,5.8,7.2,71,0.00,,,0.00,WeatherCatV1.12B45,2013-06-24 10:36:00,
2013-06-24 03:41:00,57.9,48.9,30.08,West,270,6.3,6.3,72,0.00,,,0.00,WeatherCatV1.12B45,2013-06-24 10:41:00,
2013-06-24 03:46:00,57.9,49.3,30.08,NW,316,6.3,7.6,73,0.00,,,0.00,WeatherCatV1.12B45,2013-06-24 10:46:00,
2013-06-24 03:51:00,57.9,49.7,30.08,North,353,4.0,7.6,74,0.00,,,0.00,WeatherCatV1.12B45,2013-06-24 10:51:00,
2013-06-24 03:56:00,57.9,49.7,30.08,NNW,330,3.1,6.3,74,0.00,,,0.00,WeatherCatV1.12B45,2013-06-24 10:56:00,
2013-06-24 04:01:00,57.7,49.5,30.08,NNW,334,5.8,7.2,74,0.00,,,0.00,WeatherCatV1.12B45,2013-06-24 11:01:00,
2013-06-24 04:06:00,57.7,50.2,30.08,North,353,4.9,8.1,76,0.00,,,0.00,WeatherCatV1.12B45,2013-06-24 11:06:00,
2013-06-24 04:11:00,57.7,50.6,30.08,North,0,3.6,4.0,77,0.00,,,0.00,WeatherCatV1.12B45,2013-06-24 11:11:00,
2013-06-24 04:16:00,57.7,50.9,30.08,NNW,327,4.9,5.8,78,0.00,,,0.00,WeatherCatV1.12B45,2013-06-24 11:16:00,
2013-06-24 04:21:00,57.6,51.1,30.08,NW,325,4.9,5.8,79,0.00,,,0.00,WeatherCatV1.12B45,2013-06-24 11:21:00,
2013-06-24 04:26:00,57.6,51.4,30.08,NNW,330,3.6,5.8,80,0.00,,,0.00,WeatherCatV1.12B45,2013-06-24 11:26:00,
2013-06-24 04:31:00,57.6,51.4,30.08,NNW,335,3.1,5.4,80,0.00,,,0.00,WeatherCatV1.12B45,2013-06-24 11:31:00,
2013-06-24 04:36:00,57.2,51.1,30.08,NNW,341,3.1,4.9,80,0.00,,,0.00,WeatherCatV1.12B45,2013-06-24 11:36:00,
2013-06-24 04:41:00,57.2,51.1,30.08,West,272,3.1,4.0,80,0.00,,,0.00,WeatherCatV1.12B45,2013-06-24 11:41:00,
2013-06-24 04:46:00,57.2,51.1,30.08,NW,325,3.6,4.0,80,0.00,,,0.00,WeatherCatV1.12B45,2013-06-24 11:46:00,
2013-06-24 04:51:00,57.2,51.4,30.08,NW,311,7.6,7.6,81,0.00,,,0.00,WeatherCatV1.12B45,2013-06-24 11:51:00,
2013-06-24 04:56:00,57.2,52.1,30.08,NNW,339,0.0,3.1,83,0.00,,,0.00,WeatherCatV1.12B45,2013-06-24 11:56:00,
2013-06-24 05:01:00,57.2,52.4,30.08,NW,324,0.0,5.4,84,0.00,,,0.00,WeatherCatV1.12B45,2013-06-24 12:01:00,
2013-06-24 05:06:00,57.2,52.4,30.08,WNW,297,0.0,4.9,84,0.00,,,0.00,WeatherCatV1.12B45,2013-06-24 12:06:00,
2013-06-24 05:11:00,57.2,52.4,30.08,NNW,337,3.1,5.4,84,0.00,,,0.04,WeatherCatV1.12B45,2013-06-24 12:11:00,
2013-06-24 05:16:00,57.2,52.7,30.08,North,10,0.0,0.0,85,0.00,,,0.04,WeatherCatV1.12B45,2013-06-24 12:16:00,
2013-06-24 05:21:00,57.2,53.0,30.08,North,10,0.0,0.0,86,0.00,,,0.04,WeatherCatV1.12B45,2013-06-24 12:21:00,
2013-06-24 05:26:00,57.2,53.0,30.08,North,10,0.0,0.0,86,0.20,,,0.08,WeatherCatV1.12B45,2013-06-24 12:26:00,
2013-06-24 05:31:00,57.2,53.0,30.08,NNW,343,4.0,4.9,86,0.20,,,0.08,WeatherCatV1.12B45,2013-06-24 12:31:00,
2013-06-24 05:36:00,57.2,53.0,30.08,NNW,339,0.0,0.0,86,0.20,,,0.08,WeatherCatV1.12B45,2013-06-24 12:36:00,
2013-06-24 05:41:00,57.2,53.0,30.08,NNW,341,0.0,4.0,86,0.20,,,0.08,WeatherCatV1.12B45,2013-06-24 12:41:00,
2013-06-24 05:46:00,57.2,53.0,30.08,NNW,341,2.7,3.1,86,0.20,,,0.08,WeatherCatV1.12B45,2013-06-24 12:46:00,
2013-06-24 05:51:00,57.2,53.0,30.08,NNW,341,0.0,0.0,86,0.20,,,0.08,WeatherCatV1.12B45,2013-06-24 12:51:00,
2013-06-24 05:56:00,57.2,53.0,30.08,NNW,341,0.0,0.0,86,0.20,,,0.08,WeatherCatV1.12B45,2013-06-24 12:56:00,
2013-06-24 06:01:00,57.2,53.0,30.08,NNW,341,0.0,0.0,86,0.20,,,0.08,WeatherCatV1.12B45,2013-06-24 13:01:00,
2013-06-24 06:06:00,57.2,53.0,30.08,NNW,341,0.0,0.0,86,0.20,,,0.08,WeatherCatV1.12B45,2013-06-24 13:06:00,
2013-06-24 06:11:00,57.4,53.5,30.08,NNW,341,0.0,0.0,87,0.20,,,0.08,WeatherCatV1.12B45,2013-06-24 13:11:00,
2013-06-24 06:16:00,57.4,53.5,30.08,NNW,341,0.0,0.0,87,0.20,,,0.08,WeatherCatV1.12B45,2013-06-24 13:16:00,
2013-06-24 06:21:00,57.6,53.7,30.08,NNW,341,0.0,0.0,87,0.20,,,0.08,WeatherCatV1.12B45,2013-06-24 13:21:00,
2013-06-24 06:26:00,57.6,53.7,30.08,NNW,341,0.0,0.0,87,0.20,,,0.08,WeatherCatV1.12B45,2013-06-24 13:26:00,
2013-06-24 06:31:00,57.7,53.9,30.08,NNW,341,0.0,0.0,87,0.20,,,0.08,WeatherCatV1.12B45,2013-06-24 13:31:00,
2013-06-24 06:36:00,57.7,53.9,30.08,NNW,341,0.0,0.0,87,0.20,,,0.08,WeatherCatV1.12B45,2013-06-24 13:36:00,
2013-06-24 06:41:00,57.9,54.1,30.08,NNW,341,0.0,0.0,87,0.20,,,0.08,WeatherCatV1.12B45,2013-06-24 13:41:00,
2013-06-24 06:46:00,58.5,54.6,30.08,NNW,341,0.0,0.0,87,0.20,,,0.08,WeatherCatV1.12B45,2013-06-24 13:46:00,
2013-06-24 06:51:00,59.0,55.1,30.08,NNW,341,0.0,0.0,87,0.20,,,0.08,WeatherCatV1.12B45,2013-06-24 13:51:00,
2013-06-24 06:56:00,59.0,54.8,30.08,NNW,341,0.0,0.0,86,0.20,,,0.08,WeatherCatV1.12B45,2013-06-24 13:56:00,
2013-06-24 07:01:00,58.8,54.6,30.08,NNW,341,0.0,0.0,86,0.20,,,0.08,WeatherCatV1.12B45,2013-06-24 14:01:00,
2013-06-24 07:06:00,58.5,54.3,30.08,NNW,341,0.0,0.0,86,0.20,,,0.08,WeatherCatV1.12B45,2013-06-24 14:06:00,
2013-06-24 07:11:00,58.5,54.3,30.08,NNW,341,0.0,0.0,86,0.20,,,0.08,WeatherCatV1.12B45,2013-06-24 14:11:00,
2013-06-24 07:16:00,58.5,54.0,30.08,NNW,341,0.0,0.0,85,0.20,,,0.08,WeatherCatV1.12B45,2013-06-24 14:16:00,
2013-06-24 07:21:00,58.5,54.0,30.08,NNW,341,0.0,0.0,85,0.20,,,0.08,WeatherCatV1.12B45,2013-06-24 14:21:00,
2013-06-24 07:26:00,58.5,54.0,30.08,NNW,341,0.0,0.0,85,0.20,,,0.08,WeatherCatV1.12B45,2013-06-24 14:26:00,
2013-06-24 07:31:00,59.0,54.8,30.08,NNW,341,0.0,0.0,86,0.00,,,0.08,WeatherCatV1.12B45,2013-06-24 14:31:00,
2013-06-24 07:36:00,59.4,55.2,30.08,NNW,341,0.0,0.0,86,0.00,,,0.08,WeatherCatV1.12B45,2013-06-24 14:36:00,
2013-06-24 07:41:00,59.9,55.7,30.08,NNW,341,0.0,0.0,86,0.00,,,0.08,WeatherCatV1.12B45,2013-06-24 14:41:00,
2013-06-24 07:46:00,59.9,55.7,30.08,NNW,341,0.0,0.0,86,0.00,,,0.08,WeatherCatV1.12B45,2013-06-24 14:46:00,
2013-06-24 07:51:00,59.9,55.4,30.08,NNW,341,0.0,0.0,85,0.00,,,0.08,WeatherCatV1.12B45,2013-06-24 14:51:00,
2013-06-24 07:56:00,60.1,55.6,30.08,NNW,341,0.0,0.0,85,0.00,,,0.08,WeatherCatV1.12B45,2013-06-24 14:56:00,
2013-06-24 08:01:00,60.1,55.2,30.08,NNW,341,0.0,0.0,84,0.00,,,0.08,WeatherCatV1.12B45,2013-06-24 15:01:00,
2013-06-24 08:06:00,60.4,55.6,30.08,NNW,341,0.0,0.0,84,0.00,,,0.08,WeatherCatV1.12B45,2013-06-24 15:06:00,
2013-06-24 08:11:00,60.4,55.6,30.08,NNW,341,0.0,0.0,84,0.00,,,0.12,WeatherCatV1.12B45,2013-06-24 15:11:00,
2013-06-24 08:16:00,60.6,55.4,30.08,NNW,341,0.0,0.0,83,0.00,,,0.12,WeatherCatV1.12B45,2013-06-24 15:16:00,
2013-06-24 08:21:00,61.2,56.0,30.08,NNW,341,0.0,0.0,83,0.00,,,0.12,WeatherCatV1.12B45,2013-06-24 15:21:00,
2013-06-24 08:26:00,61.3,56.1,30.08,NNW,342,0.0,0.0,83,0.00,,,0.12,WeatherCatV1.12B45,2013-06-24 15:26:00,
2013-06-24 08:31:00,60.6,55.1,30.08,NNW,342,0.0,0.0,82,0.00,,,0.12,WeatherCatV1.12B45,2013-06-24 15:31:00,
2013-06-24 08:36:00,60.3,54.7,30.08,NNW,342,0.0,0.0,82,0.00,,,0.12,WeatherCatV1.12B45,2013-06-24 15:36:00,
2013-06-24 08:41:00,60.1,54.6,30.08,NNW,342,0.0,0.0,82,0.00,,,0.12,WeatherCatV1.12B45,2013-06-24 15:41:00,
2013-06-24 08:46:00,60.3,54.7,30.08,NNW,342,0.0,0.0,82,0.00,,,0.12,WeatherCatV1.12B45,2013-06-24 15:46:00,
2013-06-24 08:51:00,60.3,54.7,30.08,SSE,168,0.0,4.0,82,0.00,,,0.12,WeatherCatV1.12B45,2013-06-24 15:51:00,
2013-06-24 08:56:00,59.9,54.1,30.08,South,177,0.0,0.0,81,0.00,,,0.12,WeatherCatV1.12B45,2013-06-24 15:56:00,
2013-06-24 09:01:00,60.1,54.6,30.08,South,177,0.0,0.0,82,0.00,,,0.12,WeatherCatV1.12B45,2013-06-24 16:01:00,
2013-06-24 09:06:00,60.3,54.7,30.11,South,171,4.0,4.0,82,0.00,,,0.12,WeatherCatV1.12B45,2013-06-24 16:06:00,
2013-06-24 09:11:00,59.7,53.9,30.11,SSW,192,0.0,0.0,81,0.00,,,0.12,WeatherCatV1.12B45,2013-06-24 16:11:00,
2013-06-24 09:16:00,59.5,53.7,30.11,SSW,192,0.0,0.0,81,0.00,,,0.12,WeatherCatV1.12B45,2013-06-24 16:16:00,
2013-06-24 09:21:00,59.7,54.2,30.11,South,191,0.0,3.1,82,0.00,,,0.12,WeatherCatV1.12B45,2013-06-24 16:21:00,
2013-06-24 09:26:00,59.7,54.2,30.11,South,187,2.2,2.2,82,0.00,,,0.12,WeatherCatV1.12B45,2013-06-24 16:26:00,
2013-06-24 09:31:00,60.1,54.6,30.11,South,187,0.0,0.0,82,0.00,,,0.12,WeatherCatV1.12B45,2013-06-24 16:31:00,
2013-06-24 09:36:00,61.0,55.4,30.11,ESE,119,0.0,0.0,82,0.00,,,0.12,WeatherCatV1.12B45,2013-06-24 16:36:00,
2013-06-24 09:41:00,61.5,55.6,30.11,ESE,112,0.0,0.0,81,0.00,,,0.12,WeatherCatV1.12B45,2013-06-24 16:41:00,
2013-06-24 09:46:00,61.9,55.6,30.11,East,92,0.0,2.7,80,0.00,,,0.12,WeatherCatV1.12B45,2013-06-24 16:46:00,
2013-06-24 09:51:00,62.4,55.1,30.11,ESE,120,4.0,4.0,77,0.00,,,0.12,WeatherCatV1.12B45,2013-06-24 16:51:00,
2013-06-24 09:56:00,63.3,54.5,30.11,ESE,110,6.3,6.3,73,0.00,,,0.12,WeatherCatV1.12B45,2013-06-24 16:56:00,
2013-06-24 10:01:00,64.4,54.8,30.11,ESE,104,3.1,5.4,71,0.00,,,0.12,WeatherCatV1.12B45,2013-06-24 17:01:00,
2013-06-24 10:06:00,63.7,50.8,30.11,ESE,102,0.0,0.0,63,0.00,,,0.12,WeatherCatV1.12B45,2013-06-24 17:06:00,
2013-06-24 10:11:00,63.5,50.2,30.11,ESE,102,0.0,4.0,62,0.00,,,0.12,WeatherCatV1.12B45,2013-06-24 17:11:00,
2013-06-24 10:16:00,63.5,49.4,30.11,ENE,65,0.0,4.0,60,0.00,,,0.12,WeatherCatV1.12B45,2013-06-24 17:16:00,
2013-06-24 10:21:00,63.5,50.2,30.11,SE,142,3.1,4.5,62,0.00,,,0.12,WeatherCatV1.12B45,2013-06-24 17:21:00,
2013-06-24 10:26:00,62.8,50.4,30.11,South,178,2.7,4.0,64,0.00,,,0.12,WeatherCatV1.12B45,2013-06-24 17:26:00,
2013-06-24 10:31:00,61.7,50.2,30.11,South,178,0.0,0.0,66,0.00,,,0.12,WeatherCatV1.12B45,2013-06-24 17:31:00,
2013-06-24 10:36:00,61.0,50.3,30.11,South,178,0.0,0.0,68,0.00,,,0.16,WeatherCatV1.12B45,2013-06-24 17:36:00,
2013-06-24 10:41:00,60.8,51.0,30.11,ESE,111,0.0,3.1,70,0.00,,,0.16,WeatherCatV1.12B45,2013-06-24 17:41:00,
2013-06-24 10:46:00,61.0,51.9,30.08,ESE,106,5.4,5.4,72,0.00,,,0.16,WeatherCatV1.12B45,2013-06-24 17:46:00,
2013-06-24 10:51:00,63.0,54.5,30.08,ESE,119,0.0,3.6,74,0.00,,,0.16,WeatherCatV1.12B45,2013-06-24 17:51:00,
2013-06-24 10:56:00,64.4,55.9,30.08,ESE,119,0.0,2.7,74,0.00,,,0.16,WeatherCatV1.12B45,2013-06-24 17:56:00,
2013-06-24 11:01:00,64.4,52.8,30.08,South,176,2.7,5.4,66,0.00,,,0.16,WeatherCatV1.12B45,2013-06-24 18:01:00,
2013-06-24 11:06:00,64.4,50.7,30.11,South,177,0.0,0.0,61,0.00,,,0.16,WeatherCatV1.12B45,2013-06-24 18:06:00,
2013-06-24 11:11:00,65.5,51.2,30.11,South,178,0.0,0.0,60,0.00,,,0.16,WeatherCatV1.12B45,2013-06-24 18:11:00,
2013-06-24 11:16:00,66.7,50.5,30.11,South,178,0.0,0.0,56,0.00,,,0.16,WeatherCatV1.12B45,2013-06-24 18:16:00,
2013-06-24 11:21:00,66.9,49.2,30.08,South,189,2.7,5.8,53,0.00,,,0.16,WeatherCatV1.12B45,2013-06-24 18:21:00,
2013-06-24 11:26:00,69.3,50.9,30.08,SE,126,0.0,2.2,52,0.00,,,0.16,WeatherCatV1.12B45,2013-06-24 18:26:00,
2013-06-24 11:31:00,68.9,47.8,30.08,South,180,5.8,5.8,47,0.00,,,0.16,WeatherCatV1.12B45,2013-06-24 18:31:00,
2013-06-24 11:36:00,69.6,48.5,30.08,ESE,122,0.0,0.0,47,0.00,,,0.16,WeatherCatV1.12B45,2013-06-24 18:36:00,
2013-06-24 11:41:00,70.2,47.8,30.08,East,82,0.0,3.6,45,0.00,,,0.16,WeatherCatV1.12B45,2013-06-24 18:41:00,
2013-06-24 11:46:00,70.3,48.0,30.11,South,177,5.4,5.4,45,0.00,,,0.16,WeatherCatV1.12B45,2013-06-24 18:46:00,
2013-06-24 11:51:00,70.5,46.9,30.11,ESE,116,0.0,5.8,43,0.00,,,0.16,WeatherCatV1.12B45,2013-06-24 18:51:00,
2013-06-24 11:56:00,70.9,47.3,30.11,WSW,242,4.0,4.0,43,0.00,,,0.16,WeatherCatV1.12B45,2013-06-24 18:56:00,
2013-06-24 12:01:00,71.2,47.0,30.11,SE,133,4.9,4.9,42,0.00,,,0.16,WeatherCatV1.12B45,2013-06-24 19:01:00,
2013-06-24 12:06:00,71.1,46.2,30.08,SE,137,0.0,0.0,41,0.00,,,0.16,WeatherCatV1.12B45,2013-06-24 19:06:00,
2013-06-24 12:11:00,70.7,45.8,30.08,SSW,195,0.0,0.0,41,0.00,,,0.16,WeatherCatV1.12B45,2013-06-24 19:11:00,
2013-06-24 12:16:00,69.8,44.4,30.08,SSE,168,0.0,7.2,40,0.00,,,0.16,WeatherCatV1.12B45,2013-06-24 19:16:00,
2013-06-24 12:21:00,69.6,44.2,30.08,East,92,3.6,6.3,40,0.00,,,0.16,WeatherCatV1.12B45,2013-06-24 19:21:00,
2013-06-24 12:26:00,69.3,44.5,30.08,SSE,153,3.1,4.0,41,0.00,,,0.16,WeatherCatV1.12B45,2013-06-24 19:26:00,
2013-06-24 12:31:00,68.4,43.7,30.08,West,265,2.2,6.3,41,0.00,,,0.16,WeatherCatV1.12B45,2013-06-24 19:31:00,
2013-06-24 12:36:00,67.8,43.9,30.08,SSW,211,3.6,5.4,42,0.00,,,0.16,WeatherCatV1.12B45,2013-06-24 19:36:00,
2013-06-24 12:41:00,67.1,43.8,30.08,SSW,196,0.0,7.2,43,0.00,,,0.16,WeatherCatV1.12B45,2013-06-24 19:41:00,
2013-06-24 12:47:00,66.0,43.5,30.08,SW,218,2.7,5.8,44,0.00,,,0.16,WeatherCatV1.12B45,2013-06-24 19:47:00,
2013-06-24 12:52:00,64.0,43.4,30.08,NW,307,3.1,5.8,47,0.00,,,0.16,WeatherCatV1.12B45,2013-06-24 19:52:00,
2013-06-24 12:57:00,62.2,46.8,30.08,West,275,4.0,4.9,57,0.00,,,0.16,WeatherCatV1.12B45,2013-06-24 19:57:00,
2013-06-24 13:02:00,61.9,50.4,30.11,NE,36,0.0,2.7,66,0.00,,,0.16,WeatherCatV1.12B45,2013-06-24 20:02:00,
2013-06-24 13:07:00,62.1,51.8,30.11,SSE,163,0.0,3.1,69,0.00,,,0.16,WeatherCatV1.12B45,2013-06-24 20:07:00,
2013-06-24 13:12:00,61.7,51.0,30.11,SE,129,0.0,4.9,68,0.00,,,0.16,WeatherCatV1.12B45,2013-06-24 20:12:00,
2013-06-24 13:17:00,61.5,51.2,30.11,ESE,111,2.2,5.8,69,0.00,,,0.16,WeatherCatV1.12B45,2013-06-24 20:17:00,
2013-06-24 13:22:00,61.3,51.5,30.11,South,177,3.6,8.7,70,0.00,,,0.16,WeatherCatV1.12B45,2013-06-24 20:22:00,
2013-06-24 13:27:00,61.5,52.0,30.11,WSW,244,2.2,4.0,71,0.00,,,0.16,WeatherCatV1.12B45,2013-06-24 20:27:00,
2013-06-24 13:32:00,61.5,51.6,30.11,SW,218,0.0,0.0,70,0.00,,,0.16,WeatherCatV1.12B45,2013-06-24 20:32:00,
2013-06-24 13:37:00,62.1,52.5,30.11,ESE,107,0.0,0.0,71,0.00,,,0.16,WeatherCatV1.12B45,2013-06-24 20:37:00,
2013-06-24 13:42:00,62.8,52.8,30.11,SSE,165,4.0,4.0,70,0.00,,,0.16,WeatherCatV1.12B45,2013-06-24 20:42:00,
2013-06-24 13:47:00,63.1,52.4,30.11,SSE,154,0.0,4.9,68,0.00,,,0.16,WeatherCatV1.12B45,2013-06-24 20:47:00,
2013-06-24 13:52:00,63.1,52.4,30.11,East,81,0.0,3.6,68,0.00,,,0.16,WeatherCatV1.12B45,2013-06-24 20:52:00,
2013-06-24 13:57:00,62.8,51.7,30.11,SW,226,0.0,6.3,67,0.00,,,0.16,WeatherCatV1.12B45,2013-06-24 20:57:00,
2013-06-24 14:02:00,63.1,52.0,30.11,SSW,201,3.1,3.6,67,0.00,,,0.16,WeatherCatV1.12B45,2013-06-24 21:02:00,
2013-06-24 14:07:00,63.3,52.2,30.11,South,175,0.0,0.0,67,0.00,,,0.16,WeatherCatV1.12B45,2013-06-24 21:07:00,
2013-06-24 14:12:00,63.1,52.4,30.11,ESE,108,4.0,4.0,68,0.00,,,0.16,WeatherCatV1.12B45,2013-06-24 21:12:00,
2013-06-24 14:17:00,62.6,51.1,30.11,SE,130,0.0,3.1,66,0.00,,,0.16,WeatherCatV1.12B45,2013-06-24 21:17:00,
2013-06-24 14:22:00,63.0,52.6,30.11,East,91,0.0,3.6,69,0.00,,,0.20,WeatherCatV1.12B45,2013-06-24 21:22:00,
2013-06-24 14:27:00,62.6,52.3,30.11,East,91,0.0,0.0,69,0.00,,,0.20,WeatherCatV1.12B45,2013-06-24 21:27:00,
2013-06-24 14:32:00,62.6,52.7,30.11,ESE,104,0.0,0.0,70,0.00,,,0.20,WeatherCatV1.12B45,2013-06-24 21:32:00,
2013-06-24 14:37:00,62.6,53.1,30.11,NE,47,0.0,0.0,71,0.00,,,0.20,WeatherCatV1.12B45,2013-06-24 21:37:00,
2013-06-24 14:42:00,63.0,53.4,30.11,East,84,0.0,0.0,71,0.00,,,0.20,WeatherCatV1.12B45,2013-06-24 21:42:00,
2013-06-24 14:47:00,63.1,53.2,30.11,West,276,2.7,4.0,70,0.00,,,0.20,WeatherCatV1.12B45,2013-06-24 21:47:00,
2013-06-24 14:52:00,62.6,51.1,30.11,West,275,0.0,0.0,66,0.00,,,0.20,WeatherCatV1.12B45,2013-06-24 21:52:00,
2013-06-24 14:57:00,62.8,51.2,30.11,West,275,0.0,0.0,66,0.00,,,0.20,WeatherCatV1.12B45,2013-06-24 21:57:00,
2013-06-24 15:02:00,63.1,51.2,30.11,South,185,0.0,3.1,65,0.00,,,0.20,WeatherCatV1.12B45,2013-06-24 22:02:00,
2013-06-24 15:07:00,64.2,51.4,30.11,ESE,107,0.0,3.1,63,0.00,,,0.20,WeatherCatV1.12B45,2013-06-24 22:07:00,
2013-06-24 15:12:00,65.1,51.3,30.11,East,96,0.0,0.0,61,0.00,,,0.20,WeatherCatV1.12B45,2013-06-24 22:12:00,
2013-06-24 15:17:00,65.3,48.2,30.11,East,96,0.0,0.0,54,0.00,,,0.20,WeatherCatV1.12B45,2013-06-24 22:17:00,
2013-06-24 15:22:00,65.5,46.3,30.11,NNW,330,0.0,0.0,50,0.00,,,0.20,WeatherCatV1.12B45,2013-06-24 22:22:00,
2013-06-24 15:27:00,65.7,46.5,30.11,West,269,0.0,2.2,50,0.00,,,0.20,WeatherCatV1.12B45,2013-06-24 22:27:00,
2013-06-24 15:32:00,66.0,45.8,30.11,SSE,167,0.0,2.2,48,0.00,,,0.20,WeatherCatV1.12B45,2013-06-24 22:32:00,
2013-06-24 15:37:00,66.9,47.1,30.11,South,175,0.0,4.0,49,0.00,,,0.20,WeatherCatV1.12B45,2013-06-24 22:37:00,
2013-06-24 15:42:00,67.5,44.8,30.11,North,353,0.0,0.0,44,0.00,,,0.20,WeatherCatV1.12B45,2013-06-24 22:42:00,
2013-06-24 15:47:00,67.5,44.8,30.11,East,82,0.0,3.1,44,0.00,,,0.20,WeatherCatV1.12B45,2013-06-24 22:47:00,
2013-06-24 15:52:00,68.4,45.6,30.11,NNW,332,2.7,3.6,44,0.00,,,0.20,WeatherCatV1.12B45,2013-06-24 22:52:00,
2013-06-24 15:57:00,69.6,44.9,30.11,NNW,327,2.2,2.2,41,0.00,,,0.20,WeatherCatV1.12B45,2013-06-24 22:57:00,
2013-06-24 16:02:00,68.9,42.9,30.11,WNW,288,3.6,4.0,39,0.00,,,0.20,WeatherCatV1.12B45,2013-06-24 23:02:00,
2013-06-24 16:07:00,67.5,42.9,30.11,NE,38,4.5,4.5,41,0.00,,,0.20,WeatherCatV1.12B45,2013-06-24 23:07:00,
2013-06-24 16:12:00,66.7,42.9,30.11,West,272,2.2,2.7,42,0.00,,,0.20,WeatherCatV1.12B45,2013-06-24 23:12:00,
2013-06-24 16:17:00,66.7,42.3,30.11,West,271,0.0,0.0,41,0.00,,,0.20,WeatherCatV1.12B45,2013-06-24 23:17:00,
2013-06-24 16:22:00,66.4,42.6,30.11,West,275,0.0,0.0,42,0.00,,,0.20,WeatherCatV1.12B45,2013-06-24 23:22:00,
2013-06-24 16:27:00,66.6,43.4,30.11,SW,231,3.1,3.6,43,0.00,,,0.20,WeatherCatV1.12B45,2013-06-24 23:27:00,
2013-06-24 16:32:00,66.4,43.2,30.11,South,171,0.0,0.0,43,0.00,,,0.20,WeatherCatV1.12B45,2013-06-24 23:32:00,
2013-06-24 16:37:00,66.0,43.5,30.11,SW,222,0.0,3.6,44,0.00,,,0.20,WeatherCatV1.12B45,2013-06-24 23:37:00,
2013-06-24 16:42:00,65.8,42.7,30.11,SSE,160,0.0,2.2,43,0.00,,,0.20,WeatherCatV1.12B45,2013-06-24 23:42:00,
2013-06-24 16:47:00,66.0,42.3,30.11,West,275,0.0,3.1,42,0.00,,,0.20,WeatherCatV1.12B45,2013-06-24 23:47:00,
2013-06-24 16:52:00,66.4,43.2,30.11,SSE,156,0.0,0.0,43,0.00,,,0.20,WeatherCatV1.12B45,2013-06-24 23:52:00,
2013-06-24 16:57:00,66.7,43.5,30.11,South,173,0.0,0.0,43,0.00,,,0.20,WeatherCatV1.12B45,2013-06-24 23:57:00,
2013-06-24 17:02:00,66.2,40.5,30.11,SSE,151,0.0,0.0,39,0.00,,,0.20,WeatherCatV1.12B45,2013-06-25 00:02:00,
2013-06-24 17:07:00,65.8,42.1,30.11,SSW,202,0.0,0.0,42,0.00,,,0.20,WeatherCatV1.12B45,2013-06-25 00:07:00,
2013-06-24 17:12:00,65.3,40.4,30.11,SW,235,0.0,4.0,40,0.00,,,0.20,WeatherCatV1.12B45,2013-06-25 00:12:00,
2013-06-24 17:17:00,65.1,41.5,30.11,West,264,0.0,2.7,42,0.00,,,0.20,WeatherCatV1.12B45,2013-06-25 00:17:00,
2013-06-24 17:22:00,64.8,40.5,30.11,WSW,239,0.0,3.1,41,0.00,,,0.20,WeatherCatV1.12B45,2013-06-25 00:22:00,
2013-06-24 17:27:00,64.4,40.2,30.11,WSW,254,0.0,2.7,41,0.00,,,0.20,WeatherCatV1.12B45,2013-06-25 00:27:00,
2013-06-24 17:32:00,64.4,41.4,30.11,WSW,254,0.0,0.0,43,0.00,,,0.20,WeatherCatV1.12B45,2013-06-25 00:32:00,
2013-06-24 17:37:00,64.0,41.7,30.11,WSW,254,0.0,0.0,44,0.00,,,0.20,WeatherCatV1.12B45,2013-06-25 00:37:00,
2013-06-24 17:42:00,63.7,41.9,30.11,SE,143,0.0,0.0,45,0.00,,,0.20,WeatherCatV1.12B45,2013-06-25 00:42:00,
2013-06-24 17:47:00,63.5,41.8,30.11,SSE,162,0.0,0.0,45,0.00,,,0.20,WeatherCatV1.12B45,2013-06-25 00:47:00,
2013-06-24 17:52:00,63.3,41.6,30.11,East,101,0.0,2.7,45,0.00,,,0.20,WeatherCatV1.12B45,2013-06-25 00:52:00,
2013-06-24 17:57:00,63.0,41.9,30.11,East,101,0.0,0.0,46,0.00,,,0.20,WeatherCatV1.12B45,2013-06-25 00:57:00,
2013-06-24 18:02:00,62.4,41.9,30.11,East,101,0.0,0.0,47,0.00,,,0.20,WeatherCatV1.12B45,2013-06-25 01:02:00,
2013-06-24 18:07:00,62.1,43.2,30.11,South,171,0.0,0.0,50,0.00,,,0.20,WeatherCatV1.12B45,2013-06-25 01:07:00,
2013-06-24 18:12:00,61.7,44.4,30.11,SW,216,0.0,0.0,53,0.00,,,0.20,WeatherCatV1.12B45,2013-06-25 01:12:00,
2013-06-24 18:17:00,61.5,45.2,30.11,South,178,0.0,2.7,55,0.00,,,0.20,WeatherCatV1.12B45,2013-06-25 01:17:00,
2013-06-24 18:22:00,61.3,45.5,30.11,South,178,0.0,0.0,56,0.00,,,0.20,WeatherCatV1.12B45,2013-06-25 01:22:00,
2013-06-24 18:27:00,61.0,46.1,30.11,ESE,105,3.1,3.1,58,0.00,,,0.20,WeatherCatV1.12B45,2013-06-25 01:27:00,
2013-06-24 18:32:00,60.6,46.2,30.11,ESE,105,0.0,0.0,59,0.00,,,0.20,WeatherCatV1.12B45,2013-06-25 01:32:00,
2013-06-24 18:37:00,60.4,46.9,30.11,ESE,105,0.0,0.0,61,0.00,,,0.20,WeatherCatV1.12B45,2013-06-25 01:37:00,
2013-06-24 18:42:00,60.3,47.6,30.11,South,183,0.0,2.7,63,0.00,,,0.20,WeatherCatV1.12B45,2013-06-25 01:42:00,
2013-06-24 18:47:00,60.1,47.9,30.11,South,183,0.0,0.0,64,0.00,,,0.20,WeatherCatV1.12B45,2013-06-25 01:47:00,
2013-06-24 18:52:00,59.9,48.5,30.11,South,183,0.0,2.7,66,0.00,,,0.20,WeatherCatV1.12B45,2013-06-25 01:52:00,
2013-06-24 18:57:00,59.7,48.7,30.11,SSE,156,0.0,3.1,67,0.00,,,0.20,WeatherCatV1.12B45,2013-06-25 01:57:00,
2013-06-24 19:02:00,59.7,49.1,30.11,South,173,0.0,3.1,68,0.00,,,0.20,WeatherCatV1.12B45,2013-06-25 02:02:00,
2013-06-24 19:07:00,59.7,49.5,30.11,SSE,154,0.0,3.6,69,0.00,,,0.20,WeatherCatV1.12B45,2013-06-25 02:07:00,
2013-06-24 19:12:00,59.7,49.9,30.11,SSE,165,0.0,2.7,70,0.00,,,0.20,WeatherCatV1.12B45,2013-06-25 02:12:00,
2013-06-24 19:17:00,59.7,49.9,30.14,SE,126,4.0,4.0,70,0.00,,,0.20,WeatherCatV1.12B45,2013-06-25 02:17:00,
2013-06-24 19:22:00,59.7,49.9,30.14,SSW,199,0.0,0.0,70,0.00,,,0.20,WeatherCatV1.12B45,2013-06-25 02:22:00,
2013-06-24 19:27:00,59.7,50.3,30.14,WSW,239,0.0,2.7,71,0.00,,,0.20,WeatherCatV1.12B45,2013-06-25 02:27:00,
2013-06-24 19:32:00,59.5,50.1,30.14,SSE,167,0.0,0.0,71,0.00,,,0.20,WeatherCatV1.12B45,2013-06-25 02:32:00,
2013-06-24 19:37:00,59.5,50.5,30.14,ESE,117,0.0,0.0,72,0.00,,,0.20,WeatherCatV1.12B45,2013-06-25 02:37:00,
2013-06-24 19:42:00,59.5,50.5,30.14,SE,144,0.0,0.0,72,0.00,,,0.20,WeatherCatV1.12B45,2013-06-25 02:42:00,
2013-06-24 19:47:00,59.4,50.7,30.11,ENE,78,0.0,2.7,73,0.00,,,0.20,WeatherCatV1.12B45,2013-06-25 02:47:00,
2013-06-24 19:52:00,59.4,51.1,30.11,WSW,254,3.6,5.4,74,0.00,,,0.20,WeatherCatV1.12B45,2013-06-25 02:52:00,
2013-06-24 19:57:00,59.0,50.7,30.11,East,81,0.0,2.2,74,0.00,,,0.20,WeatherCatV1.12B45,2013-06-25 02:57:00,
2013-06-24 20:02:00,58.8,50.9,30.14,SSW,205,0.0,3.6,75,0.00,,,0.20,WeatherCatV1.12B45,2013-06-25 03:02:00,
2013-06-24 20:07:00,58.5,50.2,30.14,West,264,0.0,7.2,74,0.00,,,0.20,WeatherCatV1.12B45,2013-06-25 03:07:00,
2013-06-24 20:12:00,58.1,49.9,30.14,West,267,3.1,3.6,74,0.00,,,0.20,WeatherCatV1.12B45,2013-06-25 03:12:00,
2013-06-24 20:17:00,57.7,49.5,30.14,West,267,0.0,4.9,74,0.00,,,0.20,WeatherCatV1.12B45,2013-06-25 03:17:00,
2013-06-24 20:22:00,57.6,49.3,30.14,West,260,2.7,4.9,74,0.00,,,0.20,WeatherCatV1.12B45,2013-06-25 03:22:00,
2013-06-24 20:27:00,57.2,49.0,30.14,SW,220,0.0,5.4,74,0.00,,,0.20,WeatherCatV1.12B45,2013-06-25 03:27:00,
2013-06-24 20:32:00,57.2,49.0,30.14,North,357,0.0,4.0,74,0.00,,,0.20,WeatherCatV1.12B45,2013-06-25 03:32:00,
2013-06-24 20:37:00,56.8,49.0,30.14,West,260,4.0,4.0,75,0.00,,,0.20,WeatherCatV1.12B45,2013-06-25 03:37:00,
2013-06-24 20:42:00,56.8,49.0,30.14,SSW,211,0.0,3.6,75,0.00,,,0.20,WeatherCatV1.12B45,2013-06-25 03:42:00,
2013-06-24 20:47:00,56.7,48.8,30.14,WNW,283,0.0,3.1,75,0.00,,,0.20,WeatherCatV1.12B45,2013-06-25 03:47:00,
2013-06-24 20:52:00,56.8,49.4,30.14,WSW,247,0.0,3.6,76,0.00,,,0.20,WeatherCatV1.12B45,2013-06-25 03:52:00,
2013-06-24 20:57:00,56.7,49.2,30.14,West,272,0.0,2.2,76,0.00,,,0.20,WeatherCatV1.12B45,2013-06-25 03:57:00,
2013-06-24 21:01:00,56.7,49.2,30.14,NNE,20,0.0,0.0,76,0.00,,,0.20,WeatherCatV1.12B45,2013-06-25 04:01:00,
2013-06-24 21:06:00,56.7,49.5,30.14,NW,312,0.0,2.2,77,0.00,,,0.20,WeatherCatV1.12B45,2013-06-25 04:06:00,
2013-06-24 21:11:00,56.7,50.2,30.14,NW,312,0.0,0.0,79,0.00,,,0.20,WeatherCatV1.12B45,2013-06-25 04:11:00,
2013-06-24 21:16:00,56.7,50.6,30.14,West,279,0.0,0.0,80,0.00,,,0.20,WeatherCatV1.12B45,2013-06-25 04:16:00,
2013-06-24 21:21:00,56.7,50.9,30.17,NNW,335,0.0,0.0,81,0.00,,,0.20,WeatherCatV1.12B45,2013-06-25 04:21:00,
2013-06-24 21:26:00,56.7,50.9,30.17,NNW,336,0.0,0.0,81,0.00,,,0.20,WeatherCatV1.12B45,2013-06-25 04:26:00,
2013-06-24 21:31:00,56.7,50.9,30.17,NNW,335,0.0,0.0,81,0.00,,,0.20,WeatherCatV1.12B45,2013-06-25 04:31:00,
2013-06-24 21:36:00,56.7,50.9,30.14,NNW,336,0.0,0.0,81,0.00,,,0.20,WeatherCatV1.12B45,2013-06-25 04:36:00,
2013-06-24 21:41:00,56.8,51.4,30.14,NNW,336,0.0,0.0,82,0.00,,,0.20,WeatherCatV1.12B45,2013-06-25 04:41:00,
2013-06-24 21:46:00,56.8,51.4,30.14,NNW,336,0.0,0.0,82,0.00,,,0.20,WeatherCatV1.12B45,2013-06-25 04:46:00,
2013-06-24 21:51:00,56.8,51.7,30.17,NW,323,0.0,0.0,83,0.00,,,0.20,WeatherCatV1.12B45,2013-06-25 04:51:00,
2013-06-24 21:56:00,56.8,51.7,30.17,NW,320,0.0,5.8,83,0.00,,,0.24,WeatherCatV1.12B45,2013-06-25 04:56:00,
2013-06-24 22:01:00,56.8,51.7,30.17,NW,320,0.0,0.0,83,0.00,,,0.24,WeatherCatV1.12B45,2013-06-25 05:01:00,
2013-06-24 22:06:00,56.8,51.7,30.17,NW,320,0.0,0.0,83,0.00,,,0.24,WeatherCatV1.12B45,2013-06-25 05:06:00,
2013-06-24 22:11:00,56.7,51.6,30.17,NW,320,0.0,0.0,83,0.00,,,0.24,WeatherCatV1.12B45,2013-06-25 05:11:00,
2013-06-24 22:16:00,56.7,51.9,30.17,NW,320,0.0,0.0,84,0.00,,,0.24,WeatherCatV1.12B45,2013-06-25 05:16:00,
2013-06-24 22:21:00,56.7,51.9,30.17,NW,320,0.0,0.0,84,0.00,,,0.24,WeatherCatV1.12B45,2013-06-25 05:21:00,
2013-06-24 22:26:00,56.7,51.9,30.17,NW,320,0.0,0.0,84,0.00,,,0.24,WeatherCatV1.12B45,2013-06-25 05:26:00,
2013-06-24 22:31:00,56.7,51.9,30.17,NW,320,0.0,0.0,84,0.00,,,0.24,WeatherCatV1.12B45,2013-06-25 05:31:00,
2013-06-24 22:36:00,56.7,52.2,30.17,NW,320,0.0,0.0,85,0.00,,,0.24,WeatherCatV1.12B45,2013-06-25 05:36:00,
2013-06-24 22:41:00,56.7,52.2,30.17,SSW,201,0.0,0.0,85,0.00,,,0.24,WeatherCatV1.12B45,2013-06-25 05:41:00,
2013-06-24 22:46:00,56.3,51.8,30.17,East,100,0.0,0.0,85,0.00,,,0.24,WeatherCatV1.12B45,2013-06-25 05:46:00,
2013-06-24 22:51:00,56.3,51.8,30.17,SE,142,0.0,0.0,85,0.00,,,0.24,WeatherCatV1.12B45,2013-06-25 05:51:00,
2013-06-24 22:56:00,56.1,51.7,30.17,SE,142,0.0,0.0,85,0.00,,,0.24,WeatherCatV1.12B45,2013-06-25 05:56:00,
2013-06-24 23:01:00,56.1,52.0,30.17,SE,142,0.0,0.0,86,0.00,,,0.24,WeatherCatV1.12B45,2013-06-25 06:01:00,
2013-06-24 23:06:00,56.1,52.0,30.17,SE,142,0.0,0.0,86,0.00,,,0.24,WeatherCatV1.12B45,2013-06-25 06:06:00,
2013-06-24 23:11:00,56.1,52.0,30.17,SE,142,0.0,0.0,86,0.00,,,0.24,WeatherCatV1.12B45,2013-06-25 06:11:00,
2013-06-24 23:16:00,56.1,52.0,30.17,SE,142,0.0,0.0,86,0.00,,,0.24,WeatherCatV1.12B45,2013-06-25 06:16:00,
2013-06-24 23:21:00,56.1,52.0,30.17,SE,142,0.0,0.0,86,0.00,,,0.24,WeatherCatV1.12B45,2013-06-25 06:21:00,
2013-06-24 23:26:00,56.1,52.0,30.17,SE,142,0.0,0.0,86,0.00,,,0.24,WeatherCatV1.12B45,2013-06-25 06:26:00,
2013-06-24 23:31:00,56.1,52.3,30.17,SE,142,0.0,0.0,87,0.00,,,0.24,WeatherCatV1.12B45,2013-06-25 06:31:00,
2013-06-24 23:36:00,56.1,52.3,30.17,SE,142,0.0,0.0,87,0.00,,,0.24,WeatherCatV1.12B45,2013-06-25 06:36:00,
2013-06-24 23:41:00,56.1,52.3,30.17,SE,142,0.0,0.0,87,0.04,,,0.28,WeatherCatV1.12B45,2013-06-25 06:41:00,
2013-06-24 23:46:00,56.1,52.3,30.17,SE,142,0.0,0.0,87,0.04,,,0.28,WeatherCatV1.12B45,2013-06-25 06:46:00,
2013-06-24 23:51:00,56.1,52.3,30.17,SE,142,0.0,0.0,87,0.04,,,0.28,WeatherCatV1.12B45,2013-06-25 06:51:00,
2013-06-24 23:56:00,56.1,52.3,30.17,SE,142,0.0,0.0,87,0.04,,,0.28,WeatherCatV1.12B45,2013-06-25 06:56:00,